User: anonymous   Login
Location: Laguna de la Cañada del Gallo
(40.3974°N, 5.2096°W)
Time: 01:56:51
(UTC+00:00)
Language:

NOSS 3-2 (A) - Orbit

View from above orbital plane
View from above orbital plane
View from above satellite
View from above satellite

Ground track
Ground track

The orbit data is extracted from the following two-line orbital elements,

1 28095U 03054A   24103.90013266 0.00000300  00000-0  22993-3 0    07
2 28095  63.3904  56.4383 0533401   3.7717 356.2283 13.41632064    00
Epoch (UTC): 12 April 2024 21:36:11
Eccentricity: 0.0533401
inclination: 63.3904°
perigee height: 704 km
apogee height: 1502 km
right ascension of ascending node: 56.4383°
argument of perigee: 3.7717°
revolutions per day: 13.41632064
mean anomaly at epoch: 356.2283°
orbit number at epoch: 0

The dashed part of the orbit path shows where the satellite is in the earth's shadow,  

DLR